Weather History for Jennings, LA

Change the Weather History Date:

Monday, April 29, 2013

  Actual Average (KLCH) Record (KLCH)
Temperature  
Mean Temperature 70 °F 71 °F  
Max Temperature 78 °F 81 °F 93 °F (1915)
Min Temperature 62 °F 62 °F 45 °F (1916)
Degree Days  
Heating Degree Days 0 0  
Month to date heating degree days 44  
Since 1 July heating degree days 1488  
Cooling Degree Days 4 7  
Month to date cooling degree days 130  
Year to date cooling degree days 202  
Growing Degree Days 20 (Base 50)    
Moisture  
Dew Point 65 °F    
Average Humidity 90    
Maximum Humidity 100    
Minimum Humidity 69    
Precipitation  
Precipitation 0.84 in 0.12 in 7.61 in (1940)
Month to date precipitation 3.21  
Year to date precipitation 15.56  
Snow  
Snow 0.00 in 0.00 in 0.00 in ()
Month to date snowfall 0.0  
Since 1 July snowfall 0.1  
Snow Depth -    
Sea Level Pressure  
Sea Level Pressure 29.92 in    
Wind  
Wind Speed 4 mph (ESE)    
Max Wind Speed 16 mph    
Max Gust Speed 31 mph    
Visibility 7 miles    
Events Fog , Rain , Thunderstorm    
T = Trace of Precipitation, MM = Missing Value Source: NWS Daily Summary

Daily Weather History Graph

Daily Weather History Graph

Search for Another Location

Airport:

Trip Planner

Search our weather history database for the weather conditions in past years. The results will help you decide how hot, cold, wet, or windy it might be!

Date:

Astronomy

Apr. 29, 2013 Rise Set
Actual Time 6:29 AM CDT 7:47 PM CDT
Civil Twilight 6:03 AM CDT 8:12 PM CDT
Nautical Twilight 5:33 AM CDT 8:42 PM CDT
Astronomical Twilight 5:02 AM CDT 9:14 PM CDT
Moon No Moon Rise 9:57 AM CDT (4/29)
Length of Visible Light 14h 08m
Length of Day
13h 18m
Waning Gibbous, 80% of the Moon is Illuminated
Apr 29
Waning Gibbous
May 2
Last Quarter
May 9
New
May 17
First Quarter
May 24
Full

Hourly Weather History & Observations

Time (CDT) Temp. Dew Point Humidity Pressure Visibility Wind Dir Wind Speed Gust Speed Precip Events Conditions
12:15 AM 65.1 °F 63.0 °F 93% 29.96 in 10.0 mi North - - N/A   Clear
12:35 AM 64.8 °F 63.3 °F 95% 29.96 in 10.0 mi SE 4.6 mph - N/A   Scattered Clouds
1:15 AM 63.9 °F 63.1 °F 97% 29.94 in 10.0 mi SE 6.9 mph - N/A   Clear
1:35 AM 64.6 °F 63.5 °F 96% 29.94 in 5.0 mi SE 6.9 mph - N/A   Clear
1:55 AM 63.9 °F 63.0 °F 97% 29.94 in 7.0 mi East 4.6 mph - N/A   Clear
2:15 AM 62.4 °F 62.1 °F 99% 29.94 in 7.0 mi East 5.8 mph - N/A   Scattered Clouds
2:35 AM 64.6 °F 64.4 °F 99% 29.92 in 2.5 mi East 5.8 mph - N/A   Overcast
2:55 AM 64.6 °F 64.6 °F 100% 29.92 in 0.8 mi East 4.6 mph - N/A   Overcast
3:15 AM 64.8 °F 64.8 °F 100% 29.92 in 0.5 mi ESE 3.5 mph - N/A Fog Fog
3:35 AM 64.9 °F 64.9 °F 100% 29.92 in 2.0 mi ESE 3.5 mph - N/A   Overcast
3:55 AM 64.8 °F 64.8 °F 100% 29.91 in 3.0 mi ESE 4.6 mph - N/A   Overcast
4:15 AM 64.4 °F 64.4 °F 100% 29.91 in 3.0 mi ESE 5.8 mph - N/A   Overcast
4:35 AM 63.9 °F 63.9 °F 100% 29.91 in 4.0 mi Calm Calm - N/A   Overcast
4:55 AM 63.1 °F 63.1 °F 100% 29.91 in 4.0 mi East 3.5 mph - N/A   Mostly Cloudy
5:15 AM 63.1 °F 63.1 °F 100% 29.91 in 3.0 mi SE 3.5 mph - N/A   Overcast
5:35 AM 63.5 °F 63.5 °F 100% 29.92 in 0.5 mi SE 4.6 mph - N/A Fog Fog
5:55 AM 63.5 °F 63.5 °F 100% 29.92 in 0.2 mi SE 3.5 mph - N/A Fog Fog
6:15 AM 63.1 °F 63.1 °F 100% 29.93 in 0.2 mi Calm Calm - N/A Fog Fog
6:35 AM 62.8 °F 62.8 °F 100% 29.94 in 0.2 mi Calm Calm - N/A Fog Fog
6:55 AM 62.6 °F 62.6 °F 100% 29.94 in 0.2 mi Calm Calm - N/A Fog Fog
7:15 AM 62.6 °F 62.6 °F 100% 29.95 in 0.2 mi Calm Calm - N/A Fog Fog
7:35 AM 63.1 °F 63.1 °F 100% 29.95 in 3.0 mi Calm Calm - N/A   Mostly Cloudy
7:55 AM 63.7 °F 63.7 °F 100% 29.95 in 2.0 mi Calm Calm - N/A   Mostly Cloudy
8:15 AM 65.3 °F 65.3 °F 100% 29.96 in 7.0 mi East 5.8 mph - N/A   Mostly Cloudy
8:35 AM 66.9 °F 66.2 °F 98% 29.96 in 10.0 mi East 4.6 mph - N/A   Scattered Clouds
8:55 AM 68.4 °F 66.4 °F 93% 29.97 in 10.0 mi ESE 3.5 mph - N/A   Mostly Cloudy
9:15 AM 68.4 °F 66.4 °F 93% 29.97 in 10.0 mi ENE 8.1 mph - N/A   Overcast
9:35 AM 68.4 °F 66.4 °F 93% 29.96 in 10.0 mi NE 8.1 mph - N/A   Overcast
9:55 AM 68.9 °F 66.4 °F 92% 29.96 in 7.0 mi North 3.5 mph - N/A   Overcast
10:15 AM 70.9 °F 67.1 °F 88% 29.97 in 10.0 mi North - - N/A   Overcast
10:35 AM 72.5 °F 67.5 °F 84% 29.97 in 10.0 mi East 4.6 mph - N/A   Overcast
10:55 AM 73.9 °F 66.6 °F 78% 29.97 in 10.0 mi Calm Calm - N/A   Mostly Cloudy
11:15 AM 73.9 °F 66.2 °F 77% 29.97 in 10.0 mi Calm Calm - N/A   Mostly Cloudy
11:35 AM 74.8 °F 66.2 °F 74% 29.97 in 10.0 mi North - - N/A   Mostly Cloudy
11:55 AM 75.4 °F 66.4 °F 73% 29.97 in 10.0 mi East 4.6 mph - N/A   Mostly Cloudy
12:15 PM 76.6 °F 65.7 °F 69% 29.96 in 10.0 mi Calm Calm - N/A   Mostly Cloudy
12:35 PM 77.0 °F 66.0 °F 69% 29.96 in 10.0 mi East 4.6 mph - N/A   Mostly Cloudy
12:55 PM 76.3 °F 66.0 °F 70% 29.95 in 10.0 mi South 3.5 mph - N/A   Overcast
1:15 PM 77.0 °F 66.7 °F 70% 29.94 in 10.0 mi WNW 3.5 mph - N/A   Overcast
1:35 PM 76.5 °F 66.2 °F 70% 29.94 in 10.0 mi North 3.5 mph - N/A   Overcast
1:55 PM 76.1 °F 65.8 °F 70% 29.93 in 4.0 mi Calm Calm - 0.07 in Rain Heavy Rain
2:15 PM 69.3 °F 64.8 °F 86% 29.94 in 1.2 mi South 5.8 mph 19.6 mph 0.42 in Rain , Thunderstorm Heavy Thunderstorms and Rain
2:35 PM 66.7 °F 62.2 °F 85% 29.93 in 4.0 mi ESE 12.7 mph 31.1 mph 0.58 in Rain , Thunderstorm Light Thunderstorms and Rain
2:55 PM 67.3 °F 64.2 °F 90% 29.93 in 5.0 mi SE 16.1 mph 20.7 mph 0.66 in Rain , Thunderstorm Light Thunderstorms and Rain
3:15 PM 65.1 °F 62.8 °F 92% 29.92 in 4.0 mi SE 9.2 mph - 0.06 in Rain Heavy Rain
3:35 PM 65.5 °F 62.8 °F 91% 29.92 in 10.0 mi SSW 6.9 mph - 0.11 in Rain Light Rain
3:55 PM 67.3 °F 64.6 °F 91% 29.92 in 10.0 mi SE 5.8 mph - 0.11 in   Light Drizzle
4:15 PM 68.9 °F 66.4 °F 92% 29.90 in 10.0 mi ESE 5.8 mph - N/A   Mostly Cloudy
4:35 PM 71.1 °F 67.3 °F 88% 29.89 in 10.0 mi East 4.6 mph - N/A   Scattered Clouds
4:55 PM 72.0 °F 66.7 °F 84% 29.89 in 10.0 mi North - - N/A   Clear
5:15 PM 73.6 °F 66.0 °F 77% 29.88 in 10.0 mi North - - N/A   Clear
5:35 PM 74.8 °F 65.8 °F 73% 29.87 in 10.0 mi North - - N/A   Clear
5:55 PM 75.6 °F 66.2 °F 73% 29.87 in 10.0 mi Calm Calm - N/A   Clear
6:15 PM 75.7 °F 66.9 °F 74% 29.87 in 10.0 mi SSE 3.5 mph - N/A   Clear
6:35 PM 75.6 °F 66.4 °F 73% 29.86 in 10.0 mi Calm Calm - N/A   Clear
6:55 PM 75.0 °F 66.4 °F 74% 29.86 in 10.0 mi Calm Calm - N/A   Clear
7:15 PM 74.1 °F 66.7 °F 78% 29.86 in 10.0 mi Calm Calm - N/A   Clear
7:35 PM 72.5 °F 67.6 °F 85% 29.86 in 10.0 mi Calm Calm - N/A   Clear
7:55 PM 71.2 °F 67.5 °F 88% 29.86 in 10.0 mi Calm Calm - N/A   Clear
8:15 PM 70.7 °F 68.0 °F 91% 29.86 in 10.0 mi Calm Calm - N/A   Clear
8:35 PM 69.8 °F 67.8 °F 93% 29.87 in 10.0 mi North - - N/A   Clear
8:55 PM 68.7 °F 67.5 °F 96% 29.87 in 10.0 mi Calm Calm - N/A   Clear
9:15 PM 68.0 °F 66.9 °F 96% 29.88 in 10.0 mi Calm Calm - N/A   Clear
9:35 PM 67.3 °F 66.6 °F 98% 29.88 in 10.0 mi Calm Calm - N/A   Clear
9:55 PM 68.0 °F 66.6 °F 95% 29.89 in 10.0 mi Calm Calm - N/A   Clear
10:35 PM 66.4 °F 65.5 °F 97% 29.89 in 10.0 mi Calm Calm - N/A   Clear
10:55 PM 67.3 °F 66.4 °F 97% 29.90 in 10.0 mi North - - N/A   Clear
11:15 PM 65.8 °F 65.3 °F 98% 29.89 in 10.0 mi Calm Calm - N/A   Clear
11:35 PM 66.2 °F 65.5 °F 98% 29.88 in 10.0 mi North - - N/A   Clear
11:55 PM 66.4 °F 65.8 °F 98% 29.89 in 7.0 mi Calm Calm - N/A   Clear